Location: Haliburton Scout Reserve
(45.0900°N, 78.3200°W)
Time: 17:33:00
(UTC-04:00)

JY1SAT - Pass Details

Date: 22 June 2024
Orbit: 536 x 549 km, 97.5° (Epoch: 11 July)

Event Time Altitude Azimuth Distance (km) Brightness Sun altitude
Exits shadow 21:55:13 - 158° (SSE) 1,977 ? -7.7°
Reaches altitude 10° 21:55:37 10° 157° (SSE) 1,814 ? -7.8°
Maximum altitude 21:59:30 67° 75° (ENE) 599 ? -8.2°
Drops below altitude 10° 22:03:27 10° 353° (N) 1,836 ? -8.7°
Sets 22:05:36 0° 350° (N) 2,736 ? -9.0°
